sat.trackr.live / text

‹ back to catalog

2024-094D

NORAD 59808 · 2024-094D

PAYLOAD ACTIVE UNKNOWN

§ Identity

Operator
Country
PRC
Launch date
2024-05-20
Launch site
TAISC
Launch vehicle
Mass (kg)
RCS (m²)

External: N2YO · Heavens-Above · Gunter

§ Orbital elements

Epoch: 2026-05-25T05:18:48.305952Z

Period
94.95 min
Inclination
97.3848°
Eccentricity
0.0002108
Mean motion
15.16660029 rev/d
Perigee alt
514.5 km
Apogee alt
517.4 km
Semi-major
6,894.1 km
B*
3.2294e-4
RAAN
216.4032°
Arg perigee
331.5599°
Mean anomaly
28.5519°
Rev number
11,167

§ Raw data

2024-094D1 59808U 24094D   26145.22139243  .00006256  00000+0  32294-3 0  99942 59808  97.3848 216.4032 0002108 331.5599  28.5519 15.16660029111677

JSON: /api/v1/satellites/59808 · /tle

For live sub-satellite position, see the globe view (requires WebGL).

§ Visibility from observer

Set your observer location to see the next 7 days of passes ≥ 10°. The values pass through the URL so the page stays shareable.

No JS? Fill the form by hand. The geolocation button needs JavaScript.